Change the Weather History Date:

Thursday, March 21, 2013

  Actual Average Record
Temperature  
Mean Temperature 24 °F -  
Max Temperature 30 °F 43 °F 59 °F (2012)
Min Temperature 12 °F 27 °F 8 °F (2001)
Degree Days  
Heating Degree Days 42    
Moisture  
Dew Point 4 °F    
Average Humidity 45    
Maximum Humidity 67    
Minimum Humidity 22    
Precipitation  
Precipitation 0.01 in 0.07 in - ()
Sea Level Pressure  
Sea Level Pressure 30.38 in    
Wind  
Wind Speed 11 mph ()    
Max Wind Speed 20 mph    
Max Gust Speed -    
Averages and records for this station are not official NWS values.
T = Trace of Precipitation, MM = Missing Value Source: Averaged Metar Reports

Daily Weather History Graph

Daily Weather History Graph

Search for Another Location

Airport or City:

Trip Planner

Search our weather history database for the weather conditions in past years. The results will help you decide how hot, cold, wet, or windy it might be!

Date:

Astronomy

Mar. 21, 2013 Rise Set
Actual Time 6:14 AM CET 6:32 PM CET
Civil Twilight 5:32 AM CET 7:14 PM CET
Nautical Twilight 4:41 AM CET 8:05 PM CET
Astronomical Twilight 3:46 AM CET 9:01 PM CET
Moon 11:28 AM CET (3/21) 3:45 AM CET (3/21)
Length of Visible Light 13h 42m
Length of Day
12h 18m
Waxing Gibbous, 66% of the Moon is Illuminated
Mar 21
Waxing Gibbous
Mar 27
Full
Apr 3
Last Quarter
Apr 10
New
Apr 18
First Quarter

Hourly Weather History & Observations

Time (CET) Temp. Windchill Dew Point Humidity Pressure Visibility Wind Dir Wind Speed Gust Speed Precip Events Conditions
12:20 AM 21.2 °F 9.5 °F 6.8 °F 54% 30.30 in - NNE 11.5 mph - N/A   Clear
12:50 AM 19.4 °F 6.6 °F 6.8 °F 58% 30.30 in - NNE 12.7 mph - N/A   Clear
1:00 AM 21 °F - 7 °F 40%  in 22 mi NNE 11.2 mph - -   Partly Cloudy
1:20 AM 19.4 °F 7.9 °F 6.8 °F 58% 30.30 in - North 10.4 mph - N/A   Clear
1:50 AM 19.4 °F 7.9 °F 5.0 °F 54% 30.33 in - North 10.4 mph - N/A   Clear
2:20 AM 19.4 °F 7.9 °F 5.0 °F 54% 30.33 in - North 10.4 mph - N/A   Clear
2:50 AM 17.6 °F 5.7 °F 5.0 °F 58% 30.33 in - NNE 10.4 mph - N/A   Clear
3:20 AM 17.6 °F 3.7 °F 5.0 °F 58% 30.33 in - NNE 13.8 mph - N/A   Clear
3:50 AM 17.6 °F 4.3 °F 3.2 °F 53% 30.33 in - NNE 12.7 mph - N/A   Clear
4:20 AM 17.6 °F 3.7 °F 3.2 °F 53% 30.33 in - NNE 13.8 mph - N/A   Clear
4:50 AM 17.6 °F 3.2 °F 3.2 °F 53% 30.33 in - NNE 15.0 mph - N/A   Clear
5:20 AM 17.6 °F 3.2 °F 3.2 °F 53% 30.33 in - NNE 15.0 mph - N/A   Clear
5:50 AM 17.6 °F 3.7 °F 1.4 °F 49% 30.36 in - NNE 13.8 mph - N/A   Clear
6:20 AM 17.6 °F 3.7 °F 1.4 °F 49% 30.36 in - NNE 13.8 mph - N/A   Clear
6:50 AM 17.6 °F 3.7 °F 1.4 °F 49% 30.36 in - NNE 13.8 mph - N/A   Clear
7:00 AM 17 °F - 2 °F 36%  in 37 mi NNE 11.2 mph - -   Partly Cloudy
7:20 AM 17.6 °F 3.7 °F 1.4 °F 49% 30.36 in - NNE 13.8 mph - N/A   Clear
7:50 AM 17.6 °F 5.7 °F 3.2 °F 53% 30.39 in - NNE 10.4 mph - N/A   Clear
8:20 AM 19.4 °F 6.6 °F 3.2 °F 49% 30.39 in - NNE 12.7 mph - N/A   Clear
8:50 AM 21.2 °F 8.9 °F 1.4 °F 42% 30.39 in - North 12.7 mph - N/A   Clear
9:20 AM 21.2 °F 7.8 °F 3.2 °F 46% 30.39 in - North 15.0 mph - N/A   Clear
9:50 AM 23.0 °F 9.6 °F 5.0 °F 46% 30.39 in - NNE 16.1 mph - N/A   Clear
10:20 AM 23.0 °F 9.6 °F 5.0 °F 46% 30.39 in - NNE 16.1 mph - N/A   Clear
10:50 AM 23.0 °F 9.6 °F 5.0 °F 46% 30.39 in - NNE 16.1 mph - N/A   Clear
11:20 AM 24.8 °F 11.5 °F 5.0 °F 43% 30.39 in - NNE 17.3 mph - N/A   Clear
11:50 AM 26.6 °F 14.3 °F 6.8 °F 43% 30.39 in - NNE 16.1 mph - N/A   Clear
12:20 PM 26.6 °F 14.3 °F 5.0 °F 40% 30.39 in - NNE 16.1 mph - N/A   Clear
12:50 PM 26.6 °F 13.1 °F 6.8 °F 43% 30.36 in - NNE 19.6 mph - N/A   Clear
1:00 PM 27 °F - 6 °F 27%  in 44 mi NNE 11.2 mph - -   Partly Cloudy
1:20 PM 28.4 °F 16.6 °F 5.0 °F 37% 30.36 in - NNE 16.1 mph - N/A   Clear
1:50 PM 28.4 °F 17.0 °F 6.8 °F 40% 30.36 in - North 15.0 mph - N/A   Clear
2:20 PM 28.4 °F 17.0 °F 6.8 °F 40% 30.36 in - NNE 15.0 mph - N/A   Clear
2:50 PM 28.4 °F 18.0 °F 3.2 °F 34% 30.36 in - NE 12.7 mph - N/A   Clear
3:20 PM 30.2 °F 20.2 °F 5.0 °F 34% 30.36 in - NE 12.7 mph - N/A   Clear
3:50 PM 30.2 °F 20.8 °F 6.8 °F 37% 30.36 in - NNE 11.5 mph - N/A   Clear
4:20 PM 30.2 °F 20.8 °F 5.0 °F 34% 30.36 in - NNE 11.5 mph - N/A   Clear
4:50 PM 28.4 °F 18.0 °F 3.2 °F 34% 30.36 in - NE 12.7 mph - N/A   Clear
5:20 PM 28.4 °F 19.7 °F 1.4 °F 31% 30.36 in - ENE 9.2 mph - N/A   Clear
5:50 PM 28.4 °F 18.5 °F 1.4 °F 31% 30.39 in - NE 11.5 mph - N/A   Clear
6:20 PM 26.6 °F 18.2 °F 3.2 °F 37% 30.39 in - NE 8.1 mph - N/A   Clear
6:50 PM 24.8 °F 16.1 °F 3.2 °F 40% 30.39 in - NE 8.1 mph - N/A   Clear
7:00 PM 26 °F - 2 °F 22%  in 44 mi NE 8.9 mph - -   Partly Cloudy
7:20 PM 23.0 °F 14.7 °F 3.2 °F 43% 30.42 in - NE 6.9 mph - N/A   Clear
7:50 PM 23.0 °F 15.8 °F 3.2 °F 43% 30.42 in - NNE 5.8 mph - N/A   Clear
8:20 PM 23.0 °F 14.7 °F 3.2 °F 43% 30.42 in - NNE 6.9 mph - N/A   Clear
9:20 PM 23.0 °F 15.8 °F 5.0 °F 46% 30.45 in - NE 5.8 mph - N/A   Clear
9:50 PM 19.4 °F 11.5 °F 5.0 °F 54% 30.48 in - North 5.8 mph - N/A   Clear
10:20 PM 21.2 °F 16.4 °F 5.0 °F 50% 30.48 in - NE 3.5 mph - N/A   Clear
10:50 PM 19.4 °F 12.8 °F 6.8 °F 58% 30.48 in - NE 4.6 mph - N/A   Clear
11:20 PM 19.4 °F 12.8 °F 6.8 °F 58% 30.51 in - NE 4.6 mph - N/A   Clear
11:50 PM 12.2 °F 2.9 °F 3.2 °F 67% 30.51 in - NNE 5.8 mph - N/A   Clear